EW1152 Weather Reports


time (UTC)temp
F
wind
direction
speed
knots
gust
knots
rain 1hr
in
rain 24hr
in
rain mn
in
humidity
%
barometer
mb
20260505065529 49 141 0.0 0.9 0.00 0.00 0.00 43 1009.9
20260505065026 50 141 0.0 0.9 0.00 0.00 0.00 43 1009.8
20260505064516 50 141 0.0 0.9 0.00 0.00 0.00 43 1009.9
20260505064229 50 141 0.0 1.7 0.00 0.00 0.00 43 1009.9
20260505063513 50 141 0.0 1.7 0.00 0.00 0.00 43 1010.0
20260505063013 50 200 0.0 0.0 0.00 0.00 0.00 43 1010.0
20260505062512 50 200 0.0 0.0 0.00 0.00 0.00 42 1010.0
20260505061952 51 200 0.0 2.6 0.00 0.00 0.00 42 1010.1
20260505061452 51 200 0.0 2.6 0.00 0.00 0.00 42 1010.1
20260505060939 51 173 0.0 5.2 0.00 0.00 0.00 42 1010.1
20260505060440 51 238 0.9 5.2 0.00 0.00 0.00 42 1010.2
20260505055931 51 245 0.9 3.5 0.00 0.00 0.00 42 1010.1
20260505055431 51 248 0.0 3.5 0.00 0.00 0.00 42 1010.0
20260505054901 51 184 0.9 5.2 0.00 0.00 0.00 42 1010.0
20260505054356 51 227 0.9 5.2 0.00 0.00 0.00 42 1010.1
20260505053849 51 211 0.0 5.2 0.00 0.00 0.00 42 1010.1
20260505053342 51 175 0.0 1.7 0.00 0.00 0.00 42 1010.1
20260505052835 51 171 0.0 3.5 0.00 0.00 0.00 42 1010.1
20260505052326 51 194 0.0 3.5 0.00 0.00 0.00 42 1010.1
20260505052042 51 196 0.0 3.5 0.00 0.00 0.00 42 1010.2
20260505051314 52 182 0.0 3.5 0.00 0.00 0.00 42 1010.1
20260505051017 52 205 0.9 4.3 0.00 0.00 0.00 41 1010.2
20260505050858 52 190 0.9 3.5 0.00 0.00 0.00 41 1010.1
20260505041714 53 163 0.0 3.5 0.00 0.00 0.00 41 1010.3
20260505041202 53 140 0.9 3.5 0.00 0.00 0.00 41 1010.3
20260505040655 53 229 0.9 4.3 0.00 0.00 0.00 41 1010.4
20260505040637 54 254 0.9 5.2 0.00 0.00 0.00 41 1010.4
20260505035650 54 117 0.9 5.2 0.00 0.00 0.00 40 1010.3
20260505035139 54 119 0.0 4.3 0.00 0.00 0.00 40 1010.3
20260505034638 54 177 0.0 3.5 0.00 0.00 0.00 40 1010.3
20260505034136 54 188 0.0 3.5 0.00 0.00 0.00 40 1010.3
20260505033630 54 217 0.9 6.1 0.00 0.00 0.00 40 1010.2
20260505033123 54 202 0.9 6.1 0.00 0.00 0.00 40 1010.1
20260505032618 54 204 0.9 4.3 0.00 0.00 0.00 40 1010.1
20260505032102 54 210 0.9 4.3 0.00 0.00 0.00 40 1010.1
20260505031556 54 204 1.7 7.0 0.00 0.00 0.00 40 1010.2
20260505031312 54 223 0.9 7.0 0.00 0.00 0.00 40 1010.2
20260505030542 54 212 0.0 3.5 0.00 0.00 0.00 40 1010.2
20260505030042 55 237 0.9 3.5 0.00 0.00 0.00 40 1010.2
20260505025542 55 217 0.0 3.5 0.00 0.00 0.00 40 1010.1
20260505025036 55 155 0.9 4.3 0.00 0.00 0.00 40 1010.2
20260505024517 55 229 0.9 4.3 0.00 0.00 0.00 39 1010.2
20260505024011 55 219 0.9 4.3 0.00 0.00 0.00 39 1010.2
20260505023506 55 126 0.9 5.2 0.00 0.00 0.00 39 1010.3
20260505023000 55 211 0.9 4.3 0.00 0.00 0.00 39 1010.3
20260505022456 55 202 0.9 2.6 0.00 0.00 0.00 39 1010.4
20260505021948 55 196 0.9 5.2 0.00 0.00 0.00 39 1010.3
20260505021442 56 165 1.7 5.2 0.00 0.00 0.00 39 1010.4
20260505021158 56 233 0.9 5.2 0.00 0.00 0.00 39 1010.4
20260505020431 56 251 1.7 6.1 0.00 0.00 0.00 39 1010.4
20260505015927 56 224 1.7 6.1 0.00 0.00 0.00 39 1010.4
20260505015426 56 202 0.9 5.2 0.00 0.00 0.00 39 1010.4
20260505014927 56 206 0.9 5.2 0.00 0.00 0.00 39 1010.3
20260505014426 57 234 1.7 5.2 0.00 0.00 0.00 39 1010.3
20260505013921 57 217 1.7 9.6 0.00 0.00 0.00 39 1010.4
20260505013412 57 304 2.6 9.6 0.00 0.00 0.00 39 1010.3
20260505012910 57 184 2.6 10.4 0.00 0.00 0.00 38 1010.3
20260505012409 57 237 1.7 10.4 0.00 0.00 0.00 38 1010.1
20260505011909 57 219 1.7 5.2 0.00 0.00 0.00 38 1010.1
20260505011410 57 192 0.9 8.7 0.00 0.00 0.00 38 1010.0
20260505011348 58 271 0.9 8.7 0.00 0.00 0.00 38 1010.0
20260505010404 58 212 2.6 6.1 0.00 0.00 0.00 38 1009.8
20260505005905 58 209 1.7 6.1 0.00 0.00 0.00 38 1009.8
20260505005404 58 188 1.7 6.1 0.00 0.00 0.00 38 1009.7
20260505004903 59 234 2.6 9.6 0.00 0.00 0.00 38 1009.5
20260505004404 59 196 2.6 9.6 0.00 0.00 0.00 38 1009.5
20260505003901 59 204 1.7 6.1 0.00 0.00 0.00 38 1009.3
20260505003400 59 244 1.7 6.1 0.00 0.00 0.00 38 1009.3
20260505002902 59 198 1.7 10.4 0.00 0.00 0.00 38 1009.1
20260505002358 59 208 2.6 11.3 0.00 0.00 0.00 38 1009.1
20260505001858 60 164 3.5 12.2 0.00 0.00 0.00 38 1008.9
20260505001358 60 186 3.5 12.2 0.00 0.00 0.00 38 1008.8
20260505001122 60 259 3.5 14.8 0.00 0.00 0.00 38 1008.7
20260505000355 60 263 4.3 14.8 0.00 0.00 0.00 39 1008.5
20260504235855 60 206 2.6 10.4 0.00 0.00 0.00 38 1008.6
20260504235356 61 213 1.7 7.8 0.00 0.00 0.00 38 1008.6
20260504234856 61 203 2.6 7.8 0.00 0.00 0.00 38 1008.5
20260504234353 62 222 2.6 12.2 0.00 0.00 0.00 38 1008.4
20260504233851 62 286 3.5 12.2 0.00 0.00 0.00 38 1008.3
20260504233351 62 317 4.3 13.0 0.00 0.00 0.00 38 1008.2
20260504232849 63 151 4.3 13.0 0.00 0.00 0.00 37 1008.1
20260504232609 63 211 3.5 12.2 0.00 0.00 0.00 37 1008.0
20260504231849 63 240 3.5 12.2 0.00 0.00 0.00 38 1007.9
20260504231611 64 216 3.5 13.9 0.00 0.00 0.00 37 1007.9
20260504230849 64 219 3.5 13.9 0.00 0.00 0.00 37 1008.0
20260504230346 65 198 3.5 12.2 0.00 0.00 0.00 37 1007.8
20260504225846 65 223 3.5 12.2 0.00 0.00 0.00 37 1007.8
20260504225347 65 175 3.5 18.2 0.00 0.00 0.00 37 1007.7
20260504224848 65 214 4.3 18.2 0.00 0.00 0.00 37 1007.7
20260504224346 65 215 4.3 13.0 0.00 0.00 0.00 37 1007.7
20260504223846 66 229 3.5 12.2 0.00 0.00 0.00 37 1007.7
20260504223346 66 158 4.3 13.9 0.00 0.00 0.00 37 1007.4
20260504223119 67 212 4.3 13.9 0.00 0.00 0.00 37 1007.3
20260504222338 67 233 4.3 12.2 0.00 0.00 0.00 37 1007.3
20260504221832 68 151 3.5 10.4 0.00 0.00 0.00 37 1007.3
20260504221327 68 268 3.5 10.4 0.00 0.00 0.00 36 1007.4
20260504220820 69 30 3.5 10.4 0.00 0.00 0.00 36 1007.2
20260504220315 69 190 2.6 8.7 0.00 0.00 0.00 36 1007.2
20260504215809 69 261 3.5 12.2 0.00 0.00 0.00 36 1007.3
20260504215750 69 301 4.3 13.0 0.00 0.00 0.00 36 1007.3
20260504214757 69 209 3.5 11.3 0.00 0.00 0.00 36 1007.3
20260504214251 69 257 2.6 8.7 0.00 0.00 0.00 35 1007.3
20260504213745 69 0 3.5 10.4 0.00 0.00 0.00 35 1007.3
20260504213239 69 170 4.3 13.0 0.00 0.00 0.00 35 1007.3
20260504212733 70 200 5.2 15.6 0.00 0.00 0.00 35 1007.1
20260504212227 70 202 5.2 13.9 0.00 0.00 0.00 35 1007.3
20260504211721 71 244 4.3 13.0 0.00 0.00 0.00 35 1006.9
20260504211215 71 240 4.3 13.9 0.00 0.00 0.00 34 1006.9
20260504210709 71 209 4.3 13.9 0.00 0.00 0.00 34 1006.9
20260504210203 71 205 3.5 10.4 0.00 0.00 0.00 34 1006.9
20260504205657 71 230 3.5 13.9 0.00 0.00 0.00 34 1006.9
20260504205151 71 344 4.3 13.9 0.00 0.00 0.00 34 1006.9
20260504204645 71 225 4.3 12.2 0.00 0.00 0.00 33 1006.9
20260504204138 72 252 3.5 16.5 0.00 0.00 0.00 33 1007.0
20260504203633 72 208 3.5 16.5 0.00 0.00 0.00 35 1006.9
20260504203127 72 90 2.6 9.6 0.00 0.00 0.00 34 1006.9
20260504202628 71 187 2.6 9.6 0.00 0.00 0.00 35 1007.0
20260504202347 71 253 4.3 11.3 0.00 0.00 0.00 35 1006.9
20260504201627 71 159 4.3 12.2 0.00 0.00 0.00 35 1007.0
20260504201125 71 190 3.5 12.2 0.00 0.00 0.00 34 1007.1
20260504200624 71 207 2.6 10.4 0.00 0.00 0.00 34 1007.1
20260504200123 71 279 3.5 10.4 0.00 0.00 0.00 34 1007.1
20260504195854 71 233 3.5 14.8 0.00 0.00 0.00 34 1007.1
20260504195120 71 190 3.5 14.8 0.00 0.00 0.00 34 1007.0
20260504194845 71 268 3.5 10.4 0.00 0.00 0.00 35 1007.1
20260504194121 71 241 4.3 14.8 0.00 0.00 0.00 34 1007.0
20260504193620 71 210 4.3 14.8 0.00 0.00 0.00 34 1007.1
20260504193120 71 207 2.6 10.4 0.00 0.00 0.00 34 1007.1
20260504192620 70 64 3.5 10.4 0.00 0.00 0.00 33 1007.0
20260504192120 71 188 3.5 10.4 0.00 0.00 0.00 34 1007.1
20260504191620 70 184 3.5 9.6 0.00 0.00 0.00 34 1007.0
20260504191346 70 195 3.5 10.4 0.00 0.00 0.00 33 1007.0
20260504190616 70 281 4.3 13.9 0.00 0.00 0.00 34 1007.1
20260504190116 70 237 3.5 13.9 0.00 0.00 0.00 35 1007.3
20260504185615 70 246 3.5 10.4 0.00 0.00 0.00 34 1007.3
20260504185117 71 333 3.5 10.4 0.00 0.00 0.00 34 1007.3
20260504184613 71 197 3.5 12.2 0.00 0.00 0.00 34 1007.5
20260504184333 70 338 4.3 14.8 0.00 0.00 0.00 35 1007.3
20260504183613 70 256 4.3 14.8 0.00 0.00 0.00 36 1007.6
20260504183110 70 225 3.5 13.0 0.00 0.00 0.00 35 1007.5
20260504182836 70 188 3.5 13.0 0.00 0.00 0.00 36 1007.4
20260504182109 70 136 4.3 20.0 0.00 0.00 0.00 36 1007.5
20260504181600 69 166 5.2 20.0 0.00 0.00 0.00 35 1007.7
20260504181101 69 149 4.3 13.9 0.00 0.00 0.00 35 1007.8
20260504180601 69 300 4.3 15.6 0.00 0.00 0.00 36 1007.9
20260504180059 69 213 5.2 15.6 0.00 0.00 0.00 35 1008.0
20260504175557 69 229 4.3 13.9 0.00 0.00 0.00 35 1008.0
20260504175057 69 213 4.3 15.6 0.00 0.00 0.00 35 1008.1
20260504174557 69 214 4.3 16.5 0.00 0.00 0.00 36 1008.0
20260504174056 69 198 4.3 16.5 0.00 0.00 0.00 35 1008.0
20260504173558 69 130 5.2 13.0 0.00 0.00 0.00 35 1008.1
20260504173318 69 196 4.3 13.0 0.00 0.00 0.00 36 1008.0
20260504172555 69 219 3.5 12.2 0.00 0.00 0.00 36 1008.1
20260504172053 69 258 4.3 13.0 0.00 0.00 0.00 37 1008.1
20260504171814 69 163 5.2 13.0 0.00 0.00 0.00 37 1008.1
20260504171053 69 293 4.3 13.0 0.00 0.00 0.00 37 1008.2
20260504170552 69 198 4.3 13.9 0.00 0.00 0.00 36 1008.0
20260504160444 68 238 5.2 13.0 0.00 0.00 0.00 38 1009.1
20260504150838 67 344 3.5 12.2 0.00 0.00 0.00 40 1009.8
20260504150333 67 244 4.3 13.0 0.00 0.00 0.00 40 1009.8
20260504141253 63 281 3.5 12.2 0.00 0.00 0.00 42 1010.3
20260504140754 63 181 3.5 10.4 0.00 0.00 0.00 41 1010.3
20260504140253 62 235 2.6 8.7 0.00 0.00 0.00 43 1010.3
20260504130721 57 184 1.7 7.8 0.00 0.00 0.00 44 1010.9
20260504130220 57 207 1.7 7.0 0.00 0.00 0.00 44 1010.9
20260504120141 50 244 0.9 4.3 0.00 0.00 0.00 44 1011.3
20260504120125 49 275 0.9 4.3 0.00 0.00 0.00 44 1011.2
20260504100508 41 158 0.9 4.3 0.00 0.00 0.00 44 1010.8
20260504081956 43 225 0.0 1.7 0.00 0.00 0.00 43 1010.5
20260504081218 43 161 0.0 0.9 0.00 0.00 0.00 43 1010.5
20260504080719 43 161 0.0 0.9 0.00 0.00 0.00 43 1010.5
20260504080219 43 196 0.0 2.6 0.00 0.00 0.00 43 1010.4
20260504070121 43 194 0.9 2.6 0.00 0.00 0.00 43 1010.2